<?xml version="1.0" encoding="UTF-8"?>
<gpx xmlns="http://www.topografix.com/GPX/1/1" xmlns:gpsies="http://www.gpsies.com/GPX/1/0" creator="GPSies http://www.gpsies.com - Tour 15) Kleine Baska-Runde zum alten Kastell" version="1.1" xmlns:xsi="http://www.w3.org/2001/XMLSchema-instance" xsi:schemaLocation="http://www.topografix.com/GPX/1/1 http://www.topografix.com/GPX/1/1/gpx.xsd http://www.gpsies.com/GPX/1/0 http://www.gpsies.com/gpsies.xsd">
  <metadata>
    <name>Tour 15) Kleine Baska-Runde zum alten Kastell</name>
    <desc>Siehe Buch: (Foto)Wanderungen auf Krk, bod-Verlag, ISBN-Nr.: 978-3-7386-0336-1</desc>
    <author>
      <name>krkwanderer</name>
      <link href="http://www.gpsies.com/mapUser.do?username=krkwanderer">
        <text>krkwanderer on GPSies.com</text>
        <type>GPSiesUserOnWeb</type>
      </link>
    </author>
    <link href="http://www.gpsies.com/map.do?fileId=ewjbfaqlkcvzfsqs">
      <text>Tour 15) Kleine Baska-Runde zum alten Kastell on GPSies.com</text>
      <type>trackOnWeb</type>
    </link>
    <time>2016-11-11T17:32:46Z</time>
    <extensions>
      <gpsies:property>round trip</gpsies:property>
      <gpsies:trackLengthMeter>4170.7264836208105</gpsies:trackLengthMeter>
      <gpsies:totalAscentMeter>189.0</gpsies:totalAscentMeter>
      <gpsies:totalDescentMeter>189.0</gpsies:totalDescentMeter>
      <gpsies:minHeightMeter>37.0</gpsies:minHeightMeter>
      <gpsies:maxHeightMeter>229.0</gpsies:maxHeightMeter>
    </extensions>
  </metadata>
  <trk>
    <name>Tour 15) Kleine Baska-Runde zum alten Kastell on GPSies.com</name>
    <link href="http://www.gpsies.com/map.do?fileId=ewjbfaqlkcvzfsqs">
      <type>trackOnWeb</type>
    </link>
    <link href="http://www.gpsies.com/charts/ew/map/ewjbfaqlkcvzfsqs_map.png">
      <type>elevationChartUrlMap</type>
    </link>
    <link href="http://www.gpsies.com/charts/ew/mapThumb/ewjbfaqlkcvzfsqs_mapThumb.png">
      <type>elevationChartUrlMapThumb</type>
    </link>
    <link href="http://www.gpsies.com/charts/ew/tab/ewjbfaqlkcvzfsqs_tab.png">
      <type>elevationChartUrlTab</type>
    </link>
    <trkseg>
      <trkpt lat="44.97298810" lon="14.75591540">
        <ele>37.000000</ele>
        <time>2010-01-01T00:00:00Z</time>
      </trkpt>
      <trkpt lat="44.97299000" lon="14.75590000">
        <ele>37.000000</ele>
        <time>2010-01-01T00:00:00Z</time>
      </trkpt>
      <trkpt lat="44.97376000" lon="14.75627000">
        <ele>51.000000</ele>
        <time>2010-01-01T00:00:20Z</time>
      </trkpt>
      <trkpt lat="44.97383000" lon="14.75635000">
        <ele>53.000000</ele>
        <time>2010-01-01T00:00:22Z</time>
      </trkpt>
      <trkpt lat="44.97387000" lon="14.75671000">
        <ele>56.000000</ele>
        <time>2010-01-01T00:00:29Z</time>
      </trkpt>
      <trkpt lat="44.97386000" lon="14.75714000">
        <ele>60.000000</ele>
        <time>2010-01-01T00:00:36Z</time>
      </trkpt>
      <trkpt lat="44.97380000" lon="14.75771000">
        <ele>63.000000</ele>
        <time>2010-01-01T00:00:46Z</time>
      </trkpt>
      <trkpt lat="44.97384000" lon="14.75800000">
        <ele>66.000000</ele>
        <time>2010-01-01T00:00:52Z</time>
      </trkpt>
      <trkpt lat="44.97402000" lon="14.75830000">
        <ele>72.000000</ele>
        <time>2010-01-01T00:00:59Z</time>
      </trkpt>
      <trkpt lat="44.97409000" lon="14.75871000">
        <ele>79.000000</ele>
        <time>2010-01-01T00:01:06Z</time>
      </trkpt>
      <trkpt lat="44.97407000" lon="14.75886000">
        <ele>81.000000</ele>
        <time>2010-01-01T00:01:09Z</time>
      </trkpt>
      <trkpt lat="44.97348000" lon="14.75949000">
        <ele>83.000000</ele>
        <time>2010-01-01T00:01:27Z</time>
      </trkpt>
      <trkpt lat="44.97298000" lon="14.76019000">
        <ele>88.000000</ele>
        <time>2010-01-01T00:01:45Z</time>
      </trkpt>
      <trkpt lat="44.97297000" lon="14.76023000">
        <ele>89.000000</ele>
        <time>2010-01-01T00:01:45Z</time>
      </trkpt>
      <trkpt lat="44.97301000" lon="14.76023000">
        <ele>90.000000</ele>
        <time>2010-01-01T00:01:46Z</time>
      </trkpt>
      <trkpt lat="44.97335000" lon="14.76002000">
        <ele>95.000000</ele>
        <time>2010-01-01T00:01:55Z</time>
      </trkpt>
      <trkpt lat="44.97356000" lon="14.75982000">
        <ele>94.000000</ele>
        <time>2010-01-01T00:02:02Z</time>
      </trkpt>
      <trkpt lat="44.97390000" lon="14.75967000">
        <ele>96.000000</ele>
        <time>2010-01-01T00:02:11Z</time>
      </trkpt>
      <trkpt lat="44.97400000" lon="14.75976000">
        <ele>101.00000</ele>
        <time>2010-01-01T00:02:14Z</time>
      </trkpt>
      <trkpt lat="44.97398000" lon="14.75985000">
        <ele>103.00000</ele>
        <time>2010-01-01T00:02:15Z</time>
      </trkpt>
      <trkpt lat="44.97367000" lon="14.76028000">
        <ele>109.00000</ele>
        <time>2010-01-01T00:02:26Z</time>
      </trkpt>
      <trkpt lat="44.97348000" lon="14.76047000">
        <ele>111.00000</ele>
        <time>2010-01-01T00:02:32Z</time>
      </trkpt>
      <trkpt lat="44.97330000" lon="14.76074000">
        <ele>116.00000</ele>
        <time>2010-01-01T00:02:38Z</time>
      </trkpt>
      <trkpt lat="44.97313000" lon="14.76113000">
        <ele>118.00000</ele>
        <time>2010-01-01T00:02:46Z</time>
      </trkpt>
      <trkpt lat="44.97309000" lon="14.76132000">
        <ele>120.00000</ele>
        <time>2010-01-01T00:02:50Z</time>
      </trkpt>
      <trkpt lat="44.97304000" lon="14.76138000">
        <ele>120.00000</ele>
        <time>2010-01-01T00:02:52Z</time>
      </trkpt>
      <trkpt lat="44.97298000" lon="14.76142000">
        <ele>118.00000</ele>
        <time>2010-01-01T00:02:53Z</time>
      </trkpt>
      <trkpt lat="44.97289000" lon="14.76194000">
        <ele>120.00000</ele>
        <time>2010-01-01T00:03:03Z</time>
      </trkpt>
      <trkpt lat="44.97281000" lon="14.76200000">
        <ele>118.00000</ele>
        <time>2010-01-01T00:03:05Z</time>
      </trkpt>
      <trkpt lat="44.97289000" lon="14.76194000">
        <ele>120.00000</ele>
        <time>2010-01-01T00:03:07Z</time>
      </trkpt>
      <trkpt lat="44.97298000" lon="14.76142000">
        <ele>118.00000</ele>
        <time>2010-01-01T00:03:17Z</time>
      </trkpt>
      <trkpt lat="44.97306000" lon="14.76137000">
        <ele>120.00000</ele>
        <time>2010-01-01T00:03:19Z</time>
      </trkpt>
      <trkpt lat="44.97309000" lon="14.76132000">
        <ele>120.00000</ele>
        <time>2010-01-01T00:03:20Z</time>
      </trkpt>
      <trkpt lat="44.97311000" lon="14.76134000">
        <ele>121.00000</ele>
        <time>2010-01-01T00:03:21Z</time>
      </trkpt>
      <trkpt lat="44.97317000" lon="14.76130000">
        <ele>123.00000</ele>
        <time>2010-01-01T00:03:22Z</time>
      </trkpt>
      <trkpt lat="44.97346000" lon="14.76100000">
        <ele>124.00000</ele>
        <time>2010-01-01T00:03:31Z</time>
      </trkpt>
      <trkpt lat="44.97359000" lon="14.76086000">
        <ele>124.00000</ele>
        <time>2010-01-01T00:03:35Z</time>
      </trkpt>
      <trkpt lat="44.97387000" lon="14.76082000">
        <ele>127.00000</ele>
        <time>2010-01-01T00:03:42Z</time>
      </trkpt>
      <trkpt lat="44.97421000" lon="14.76084000">
        <ele>132.00000</ele>
        <time>2010-01-01T00:03:51Z</time>
      </trkpt>
      <trkpt lat="44.97420000" lon="14.76084000">
        <ele>132.00000</ele>
        <time>2010-01-01T00:03:51Z</time>
      </trkpt>
      <trkpt lat="44.97488000" lon="14.76068000">
        <ele>133.00000</ele>
        <time>2010-01-01T00:04:08Z</time>
      </trkpt>
      <trkpt lat="44.97515000" lon="14.76058000">
        <ele>136.00000</ele>
        <time>2010-01-01T00:04:15Z</time>
      </trkpt>
      <trkpt lat="44.97531000" lon="14.76061000">
        <ele>140.00000</ele>
        <time>2010-01-01T00:04:19Z</time>
      </trkpt>
      <trkpt lat="44.97540000" lon="14.76079000">
        <ele>146.00000</ele>
        <time>2010-01-01T00:04:23Z</time>
      </trkpt>
      <trkpt lat="44.97551000" lon="14.76117000">
        <ele>154.00000</ele>
        <time>2010-01-01T00:04:30Z</time>
      </trkpt>
      <trkpt lat="44.97545000" lon="14.76140000">
        <ele>155.00000</ele>
        <time>2010-01-01T00:04:34Z</time>
      </trkpt>
      <trkpt lat="44.97539000" lon="14.76153000">
        <ele>154.00000</ele>
        <time>2010-01-01T00:04:37Z</time>
      </trkpt>
      <trkpt lat="44.97539000" lon="14.76164000">
        <ele>155.00000</ele>
        <time>2010-01-01T00:04:39Z</time>
      </trkpt>
      <trkpt lat="44.97543000" lon="14.76176000">
        <ele>157.00000</ele>
        <time>2010-01-01T00:04:41Z</time>
      </trkpt>
      <trkpt lat="44.97543000" lon="14.76192000">
        <ele>158.00000</ele>
        <time>2010-01-01T00:04:44Z</time>
      </trkpt>
      <trkpt lat="44.97550000" lon="14.76255000">
        <ele>163.00000</ele>
        <time>2010-01-01T00:04:55Z</time>
      </trkpt>
      <trkpt lat="44.97546000" lon="14.76276000">
        <ele>163.00000</ele>
        <time>2010-01-01T00:04:59Z</time>
      </trkpt>
      <trkpt lat="44.97544000" lon="14.76311000">
        <ele>164.00000</ele>
        <time>2010-01-01T00:05:05Z</time>
      </trkpt>
      <trkpt lat="44.97535000" lon="14.76322000">
        <ele>161.00000</ele>
        <time>2010-01-01T00:05:08Z</time>
      </trkpt>
      <trkpt lat="44.97533000" lon="14.76333000">
        <ele>161.00000</ele>
        <time>2010-01-01T00:05:10Z</time>
      </trkpt>
      <trkpt lat="44.97517000" lon="14.76348000">
        <ele>155.00000</ele>
        <time>2010-01-01T00:05:15Z</time>
      </trkpt>
      <trkpt lat="44.97514000" lon="14.76354000">
        <ele>155.00000</ele>
        <time>2010-01-01T00:05:16Z</time>
      </trkpt>
      <trkpt lat="44.97495000" lon="14.76367000">
        <ele>148.00000</ele>
        <time>2010-01-01T00:05:22Z</time>
      </trkpt>
      <trkpt lat="44.97514000" lon="14.76354000">
        <ele>155.00000</ele>
        <time>2010-01-01T00:05:27Z</time>
      </trkpt>
      <trkpt lat="44.97517000" lon="14.76348000">
        <ele>155.00000</ele>
        <time>2010-01-01T00:05:28Z</time>
      </trkpt>
      <trkpt lat="44.97533000" lon="14.76333000">
        <ele>161.00000</ele>
        <time>2010-01-01T00:05:33Z</time>
      </trkpt>
      <trkpt lat="44.97546000" lon="14.76324000">
        <ele>166.00000</ele>
        <time>2010-01-01T00:05:37Z</time>
      </trkpt>
      <trkpt lat="44.97552000" lon="14.76314000">
        <ele>168.00000</ele>
        <time>2010-01-01T00:05:39Z</time>
      </trkpt>
      <trkpt lat="44.97558000" lon="14.76294000">
        <ele>169.00000</ele>
        <time>2010-01-01T00:05:43Z</time>
      </trkpt>
      <trkpt lat="44.97562000" lon="14.76287000">
        <ele>171.00000</ele>
        <time>2010-01-01T00:05:44Z</time>
      </trkpt>
      <trkpt lat="44.97573000" lon="14.76281000">
        <ele>175.00000</ele>
        <time>2010-01-01T00:05:47Z</time>
      </trkpt>
      <trkpt lat="44.97578000" lon="14.76275000">
        <ele>177.00000</ele>
        <time>2010-01-01T00:05:49Z</time>
      </trkpt>
      <trkpt lat="44.97581000" lon="14.76260000">
        <ele>178.00000</ele>
        <time>2010-01-01T00:05:52Z</time>
      </trkpt>
      <trkpt lat="44.97582000" lon="14.76239000">
        <ele>176.00000</ele>
        <time>2010-01-01T00:05:55Z</time>
      </trkpt>
      <trkpt lat="44.97589000" lon="14.76205000">
        <ele>177.00000</ele>
        <time>2010-01-01T00:06:02Z</time>
      </trkpt>
      <trkpt lat="44.97601000" lon="14.76177000">
        <ele>179.00000</ele>
        <time>2010-01-01T00:06:07Z</time>
      </trkpt>
      <trkpt lat="44.97609000" lon="14.76171000">
        <ele>182.00000</ele>
        <time>2010-01-01T00:06:10Z</time>
      </trkpt>
      <trkpt lat="44.97624000" lon="14.76140000">
        <ele>183.00000</ele>
        <time>2010-01-01T00:06:16Z</time>
      </trkpt>
      <trkpt lat="44.97639000" lon="14.76119000">
        <ele>186.00000</ele>
        <time>2010-01-01T00:06:21Z</time>
      </trkpt>
      <trkpt lat="44.97659000" lon="14.76098000">
        <ele>191.00000</ele>
        <time>2010-01-01T00:06:28Z</time>
      </trkpt>
      <trkpt lat="44.97676000" lon="14.76079000">
        <ele>195.00000</ele>
        <time>2010-01-01T00:06:33Z</time>
      </trkpt>
      <trkpt lat="44.97695000" lon="14.76049000">
        <ele>197.00000</ele>
        <time>2010-01-01T00:06:40Z</time>
      </trkpt>
      <trkpt lat="44.97708000" lon="14.76022000">
        <ele>198.00000</ele>
        <time>2010-01-01T00:06:46Z</time>
      </trkpt>
      <trkpt lat="44.97724000" lon="14.75997000">
        <ele>200.00000</ele>
        <time>2010-01-01T00:06:52Z</time>
      </trkpt>
      <trkpt lat="44.97738000" lon="14.75959000">
        <ele>201.00000</ele>
        <time>2010-01-01T00:06:59Z</time>
      </trkpt>
      <trkpt lat="44.97747000" lon="14.75952000">
        <ele>205.00000</ele>
        <time>2010-01-01T00:07:02Z</time>
      </trkpt>
      <trkpt lat="44.97759000" lon="14.75952000">
        <ele>210.00000</ele>
        <time>2010-01-01T00:07:05Z</time>
      </trkpt>
      <trkpt lat="44.97766000" lon="14.75943000">
        <ele>213.00000</ele>
        <time>2010-01-01T00:07:07Z</time>
      </trkpt>
      <trkpt lat="44.97767000" lon="14.75940000">
        <ele>213.00000</ele>
        <time>2010-01-01T00:07:08Z</time>
      </trkpt>
      <trkpt lat="44.97764000" lon="14.75925000">
        <ele>210.00000</ele>
        <time>2010-01-01T00:07:11Z</time>
      </trkpt>
      <trkpt lat="44.97763000" lon="14.75896000">
        <ele>211.00000</ele>
        <time>2010-01-01T00:07:16Z</time>
      </trkpt>
      <trkpt lat="44.97749000" lon="14.75839000">
        <ele>211.00000</ele>
        <time>2010-01-01T00:07:26Z</time>
      </trkpt>
      <trkpt lat="44.97752000" lon="14.75814000">
        <ele>212.00000</ele>
        <time>2010-01-01T00:07:31Z</time>
      </trkpt>
      <trkpt lat="44.97750000" lon="14.75797000">
        <ele>209.00000</ele>
        <time>2010-01-01T00:07:34Z</time>
      </trkpt>
      <trkpt lat="44.97753000" lon="14.75776000">
        <ele>209.00000</ele>
        <time>2010-01-01T00:07:38Z</time>
      </trkpt>
      <trkpt lat="44.97756000" lon="14.75766000">
        <ele>210.00000</ele>
        <time>2010-01-01T00:07:40Z</time>
      </trkpt>
      <trkpt lat="44.97776000" lon="14.75743000">
        <ele>216.00000</ele>
        <time>2010-01-01T00:07:46Z</time>
      </trkpt>
      <trkpt lat="44.97787000" lon="14.75739000">
        <ele>221.00000</ele>
        <time>2010-01-01T00:07:49Z</time>
      </trkpt>
      <trkpt lat="44.97804000" lon="14.75716000">
        <ele>223.00000</ele>
        <time>2010-01-01T00:07:55Z</time>
      </trkpt>
      <trkpt lat="44.97831000" lon="14.75688000">
        <ele>229.00000</ele>
        <time>2010-01-01T00:08:03Z</time>
      </trkpt>
      <trkpt lat="44.97839000" lon="14.75672000">
        <ele>229.00000</ele>
        <time>2010-01-01T00:08:06Z</time>
      </trkpt>
      <trkpt lat="44.97842000" lon="14.75641000">
        <ele>219.00000</ele>
        <time>2010-01-01T00:08:12Z</time>
      </trkpt>
      <trkpt lat="44.97839000" lon="14.75672000">
        <ele>229.00000</ele>
        <time>2010-01-01T00:08:17Z</time>
      </trkpt>
      <trkpt lat="44.97831000" lon="14.75688000">
        <ele>229.00000</ele>
        <time>2010-01-01T00:08:21Z</time>
      </trkpt>
      <trkpt lat="44.97804000" lon="14.75716000">
        <ele>223.00000</ele>
        <time>2010-01-01T00:08:29Z</time>
      </trkpt>
      <trkpt lat="44.97787000" lon="14.75739000">
        <ele>221.00000</ele>
        <time>2010-01-01T00:08:35Z</time>
      </trkpt>
      <trkpt lat="44.97776000" lon="14.75743000">
        <ele>216.00000</ele>
        <time>2010-01-01T00:08:38Z</time>
      </trkpt>
      <trkpt lat="44.97756000" lon="14.75766000">
        <ele>210.00000</ele>
        <time>2010-01-01T00:08:44Z</time>
      </trkpt>
      <trkpt lat="44.97753000" lon="14.75776000">
        <ele>209.00000</ele>
        <time>2010-01-01T00:08:46Z</time>
      </trkpt>
      <trkpt lat="44.97750000" lon="14.75797000">
        <ele>209.00000</ele>
        <time>2010-01-01T00:08:50Z</time>
      </trkpt>
      <trkpt lat="44.97752000" lon="14.75814000">
        <ele>212.00000</ele>
        <time>2010-01-01T00:08:53Z</time>
      </trkpt>
      <trkpt lat="44.97749000" lon="14.75839000">
        <ele>211.00000</ele>
        <time>2010-01-01T00:08:57Z</time>
      </trkpt>
      <trkpt lat="44.97763000" lon="14.75896000">
        <ele>211.00000</ele>
        <time>2010-01-01T00:09:08Z</time>
      </trkpt>
      <trkpt lat="44.97764000" lon="14.75925000">
        <ele>210.00000</ele>
        <time>2010-01-01T00:09:13Z</time>
      </trkpt>
      <trkpt lat="44.97767000" lon="14.75940000">
        <ele>213.00000</ele>
        <time>2010-01-01T00:09:16Z</time>
      </trkpt>
      <trkpt lat="44.97759000" lon="14.75952000">
        <ele>210.00000</ele>
        <time>2010-01-01T00:09:19Z</time>
      </trkpt>
      <trkpt lat="44.97747000" lon="14.75952000">
        <ele>205.00000</ele>
        <time>2010-01-01T00:09:22Z</time>
      </trkpt>
      <trkpt lat="44.97738000" lon="14.75959000">
        <ele>201.00000</ele>
        <time>2010-01-01T00:09:24Z</time>
      </trkpt>
      <trkpt lat="44.97724000" lon="14.75997000">
        <ele>200.00000</ele>
        <time>2010-01-01T00:09:32Z</time>
      </trkpt>
      <trkpt lat="44.97708000" lon="14.76022000">
        <ele>198.00000</ele>
        <time>2010-01-01T00:09:38Z</time>
      </trkpt>
      <trkpt lat="44.97695000" lon="14.76049000">
        <ele>197.00000</ele>
        <time>2010-01-01T00:09:44Z</time>
      </trkpt>
      <trkpt lat="44.97676000" lon="14.76079000">
        <ele>195.00000</ele>
        <time>2010-01-01T00:09:51Z</time>
      </trkpt>
      <trkpt lat="44.97639000" lon="14.76119000">
        <ele>186.00000</ele>
        <time>2010-01-01T00:10:02Z</time>
      </trkpt>
      <trkpt lat="44.97624000" lon="14.76140000">
        <ele>183.00000</ele>
        <time>2010-01-01T00:10:08Z</time>
      </trkpt>
      <trkpt lat="44.97609000" lon="14.76171000">
        <ele>182.00000</ele>
        <time>2010-01-01T00:10:14Z</time>
      </trkpt>
      <trkpt lat="44.97601000" lon="14.76177000">
        <ele>179.00000</ele>
        <time>2010-01-01T00:10:16Z</time>
      </trkpt>
      <trkpt lat="44.97589000" lon="14.76205000">
        <ele>177.00000</ele>
        <time>2010-01-01T00:10:22Z</time>
      </trkpt>
      <trkpt lat="44.97582000" lon="14.76239000">
        <ele>176.00000</ele>
        <time>2010-01-01T00:10:28Z</time>
      </trkpt>
      <trkpt lat="44.97582000" lon="14.76248000">
        <ele>177.00000</ele>
        <time>2010-01-01T00:10:30Z</time>
      </trkpt>
      <trkpt lat="44.97581000" lon="14.76260000">
        <ele>178.00000</ele>
        <time>2010-01-01T00:10:32Z</time>
      </trkpt>
      <trkpt lat="44.97578000" lon="14.76275000">
        <ele>177.00000</ele>
        <time>2010-01-01T00:10:35Z</time>
      </trkpt>
      <trkpt lat="44.97573000" lon="14.76281000">
        <ele>175.00000</ele>
        <time>2010-01-01T00:10:36Z</time>
      </trkpt>
      <trkpt lat="44.97562000" lon="14.76287000">
        <ele>171.00000</ele>
        <time>2010-01-01T00:10:39Z</time>
      </trkpt>
      <trkpt lat="44.97558000" lon="14.76294000">
        <ele>169.00000</ele>
        <time>2010-01-01T00:10:41Z</time>
      </trkpt>
      <trkpt lat="44.97552000" lon="14.76314000">
        <ele>168.00000</ele>
        <time>2010-01-01T00:10:45Z</time>
      </trkpt>
      <trkpt lat="44.97546000" lon="14.76324000">
        <ele>166.00000</ele>
        <time>2010-01-01T00:10:47Z</time>
      </trkpt>
      <trkpt lat="44.97533000" lon="14.76333000">
        <ele>161.00000</ele>
        <time>2010-01-01T00:10:51Z</time>
      </trkpt>
      <trkpt lat="44.97535000" lon="14.76322000">
        <ele>161.00000</ele>
        <time>2010-01-01T00:10:53Z</time>
      </trkpt>
      <trkpt lat="44.97544000" lon="14.76311000">
        <ele>164.00000</ele>
        <time>2010-01-01T00:10:56Z</time>
      </trkpt>
      <trkpt lat="44.97545000" lon="14.76281000">
        <ele>163.00000</ele>
        <time>2010-01-01T00:11:01Z</time>
      </trkpt>
      <trkpt lat="44.97550000" lon="14.76255000">
        <ele>163.00000</ele>
        <time>2010-01-01T00:11:06Z</time>
      </trkpt>
      <trkpt lat="44.97543000" lon="14.76192000">
        <ele>158.00000</ele>
        <time>2010-01-01T00:11:17Z</time>
      </trkpt>
      <trkpt lat="44.97543000" lon="14.76176000">
        <ele>157.00000</ele>
        <time>2010-01-01T00:11:20Z</time>
      </trkpt>
      <trkpt lat="44.97539000" lon="14.76164000">
        <ele>155.00000</ele>
        <time>2010-01-01T00:11:22Z</time>
      </trkpt>
      <trkpt lat="44.97539000" lon="14.76153000">
        <ele>154.00000</ele>
        <time>2010-01-01T00:11:24Z</time>
      </trkpt>
      <trkpt lat="44.97545000" lon="14.76140000">
        <ele>155.00000</ele>
        <time>2010-01-01T00:11:27Z</time>
      </trkpt>
      <trkpt lat="44.97551000" lon="14.76117000">
        <ele>154.00000</ele>
        <time>2010-01-01T00:11:31Z</time>
      </trkpt>
      <trkpt lat="44.97540000" lon="14.76079000">
        <ele>146.00000</ele>
        <time>2010-01-01T00:11:38Z</time>
      </trkpt>
      <trkpt lat="44.97531000" lon="14.76061000">
        <ele>140.00000</ele>
        <time>2010-01-01T00:11:42Z</time>
      </trkpt>
      <trkpt lat="44.97515000" lon="14.76058000">
        <ele>136.00000</ele>
        <time>2010-01-01T00:11:46Z</time>
      </trkpt>
      <trkpt lat="44.97472000" lon="14.76072000">
        <ele>132.00000</ele>
        <time>2010-01-01T00:11:57Z</time>
      </trkpt>
      <trkpt lat="44.97422000" lon="14.76084000">
        <ele>132.00000</ele>
        <time>2010-01-01T00:12:10Z</time>
      </trkpt>
      <trkpt lat="44.97387000" lon="14.76082000">
        <ele>127.00000</ele>
        <time>2010-01-01T00:12:18Z</time>
      </trkpt>
      <trkpt lat="44.97359000" lon="14.76086000">
        <ele>124.00000</ele>
        <time>2010-01-01T00:12:25Z</time>
      </trkpt>
      <trkpt lat="44.97317000" lon="14.76130000">
        <ele>123.00000</ele>
        <time>2010-01-01T00:12:38Z</time>
      </trkpt>
      <trkpt lat="44.97311000" lon="14.76134000">
        <ele>121.00000</ele>
        <time>2010-01-01T00:12:40Z</time>
      </trkpt>
      <trkpt lat="44.97309000" lon="14.76132000">
        <ele>120.00000</ele>
        <time>2010-01-01T00:12:41Z</time>
      </trkpt>
      <trkpt lat="44.97313000" lon="14.76113000">
        <ele>118.00000</ele>
        <time>2010-01-01T00:12:44Z</time>
      </trkpt>
      <trkpt lat="44.97330000" lon="14.76074000">
        <ele>116.00000</ele>
        <time>2010-01-01T00:12:52Z</time>
      </trkpt>
      <trkpt lat="44.97348000" lon="14.76047000">
        <ele>111.00000</ele>
        <time>2010-01-01T00:12:59Z</time>
      </trkpt>
      <trkpt lat="44.97367000" lon="14.76028000">
        <ele>109.00000</ele>
        <time>2010-01-01T00:13:05Z</time>
      </trkpt>
      <trkpt lat="44.97398000" lon="14.75985000">
        <ele>103.00000</ele>
        <time>2010-01-01T00:13:15Z</time>
      </trkpt>
      <trkpt lat="44.97400000" lon="14.75976000">
        <ele>101.00000</ele>
        <time>2010-01-01T00:13:17Z</time>
      </trkpt>
      <trkpt lat="44.97390000" lon="14.75967000">
        <ele>96.000000</ele>
        <time>2010-01-01T00:13:20Z</time>
      </trkpt>
      <trkpt lat="44.97358000" lon="14.75981000">
        <ele>94.000000</ele>
        <time>2010-01-01T00:13:28Z</time>
      </trkpt>
      <trkpt lat="44.97335000" lon="14.76002000">
        <ele>95.000000</ele>
        <time>2010-01-01T00:13:35Z</time>
      </trkpt>
      <trkpt lat="44.97301000" lon="14.76023000">
        <ele>90.000000</ele>
        <time>2010-01-01T00:13:44Z</time>
      </trkpt>
      <trkpt lat="44.97297000" lon="14.76023000">
        <ele>89.000000</ele>
        <time>2010-01-01T00:13:45Z</time>
      </trkpt>
      <trkpt lat="44.97298000" lon="14.76019000">
        <ele>88.000000</ele>
        <time>2010-01-01T00:13:46Z</time>
      </trkpt>
      <trkpt lat="44.97348000" lon="14.75949000">
        <ele>83.000000</ele>
        <time>2010-01-01T00:14:04Z</time>
      </trkpt>
      <trkpt lat="44.97407000" lon="14.75886000">
        <ele>81.000000</ele>
        <time>2010-01-01T00:14:22Z</time>
      </trkpt>
      <trkpt lat="44.97409000" lon="14.75871000">
        <ele>79.000000</ele>
        <time>2010-01-01T00:14:25Z</time>
      </trkpt>
      <trkpt lat="44.97402000" lon="14.75830000">
        <ele>72.000000</ele>
        <time>2010-01-01T00:14:32Z</time>
      </trkpt>
      <trkpt lat="44.97384000" lon="14.75800000">
        <ele>66.000000</ele>
        <time>2010-01-01T00:14:39Z</time>
      </trkpt>
      <trkpt lat="44.97380000" lon="14.75771000">
        <ele>63.000000</ele>
        <time>2010-01-01T00:14:44Z</time>
      </trkpt>
      <trkpt lat="44.97386000" lon="14.75714000">
        <ele>60.000000</ele>
        <time>2010-01-01T00:14:54Z</time>
      </trkpt>
      <trkpt lat="44.97387000" lon="14.75671000">
        <ele>56.000000</ele>
        <time>2010-01-01T00:15:02Z</time>
      </trkpt>
      <trkpt lat="44.97383000" lon="14.75635000">
        <ele>53.000000</ele>
        <time>2010-01-01T00:15:08Z</time>
      </trkpt>
      <trkpt lat="44.97376000" lon="14.75627000">
        <ele>51.000000</ele>
        <time>2010-01-01T00:15:11Z</time>
      </trkpt>
      <trkpt lat="44.97297000" lon="14.75589000">
        <ele>37.000000</ele>
        <time>2010-01-01T00:15:31Z</time>
      </trkpt>
      <trkpt lat="44.97297000" lon="14.75582000">
        <ele>37.000000</ele>
        <time>2010-01-01T00:15:33Z</time>
      </trkpt>
    </trkseg>
  </trk>
</gpx>

